Time,TemperatureF,DewpointF,PressureIn,WindDirection,WindDirectionDegrees,WindSpeedMPH,WindSpeedGustMPH,Humidity,HourlyPrecipIn,Conditions,Clouds,dailyrainin,SoftwareType,DateUTC
2013-01-04 00:00:00,28.4,17.4,30.07,West,267,9.0,10.0,63,0.00,,---,0.00,VWS V14.01,2013-01-04 05:00:00,
2013-01-04 00:03:00,28.4,17.4,30.07,SW,235,6.0,9.0,63,0.00,,---,0.00,VWS V14.01,2013-01-04 05:03:00,
2013-01-04 00:05:00,28.5,17.5,30.07,SW,229,6.0,9.0,63,0.00,,---,0.00,VWS V14.01,2013-01-04 05:05:00,
2013-01-04 00:10:00,28.5,17.5,30.07,WSW,238,3.0,9.0,63,0.00,,---,0.00,VWS V14.01,2013-01-04 05:10:00,
2013-01-04 00:15:00,28.5,17.5,30.07,SW,230,5.0,9.0,63,0.00,,---,0.00,VWS V14.01,2013-01-04 05:15:00,
2013-01-04 00:16:00,28.5,17.5,30.07,SW,234,5.0,9.0,63,0.00,,---,0.00,VWS V14.01,2013-01-04 05:16:00,
2013-01-04 00:21:00,28.5,17.5,30.07,SSW,199,0.0,8.0,63,0.00,,---,0.00,VWS V14.01,2013-01-04 05:21:00,
2013-01-04 00:26:00,28.4,17.4,30.07,WSW,248,5.0,8.0,63,0.00,,---,0.00,VWS V14.01,2013-01-04 05:26:00,
2013-01-04 00:30:00,28.5,17.5,30.07,WSW,257,3.0,8.0,63,0.00,,---,0.00,VWS V14.01,2013-01-04 05:30:00,
2013-01-04 00:31:00,28.5,17.5,30.07,WSW,257,3.0,8.0,63,0.00,,---,0.00,VWS V14.01,2013-01-04 05:31:00,
2013-01-04 00:36:00,28.5,17.5,30.07,WSW,241,3.0,6.0,63,0.00,,---,0.00,VWS V14.01,2013-01-04 05:36:00,
2013-01-04 00:41:00,28.5,17.5,30.06,West,274,3.0,6.0,63,0.00,,---,0.00,VWS V14.01,2013-01-04 05:41:00,
2013-01-04 00:45:00,28.4,17.4,30.06,WSW,253,3.0,6.0,63,0.00,,---,0.00,VWS V14.01,2013-01-04 05:45:00,
2013-01-04 00:46:00,28.4,17.4,30.06,WSW,253,3.0,5.0,63,0.00,,---,0.00,VWS V14.01,2013-01-04 05:46:00,
2013-01-04 00:51:00,28.4,17.4,30.06,West,266,4.0,6.0,63,0.00,,---,0.00,VWS V14.01,2013-01-04 05:51:00,
2013-01-04 00:56:00,28.3,17.3,30.06,SW,236,3.0,6.0,63,0.00,,---,0.00,VWS V14.01,2013-01-04 05:56:00,
2013-01-04 01:00:00,28.4,17.4,30.06,WSW,240,3.0,6.0,63,0.00,,---,0.00,VWS V14.01,2013-01-04 06:00:00,
2013-01-04 01:01:00,28.4,17.4,30.06,WSW,240,3.0,4.0,63,0.00,,---,0.00,VWS V14.01,2013-01-04 06:01:00,
2013-01-04 01:06:00,28.3,17.3,30.06,SSW,212,4.0,4.0,63,0.00,,---,0.00,VWS V14.01,2013-01-04 06:06:00,
2013-01-04 01:11:00,28.4,17.4,30.06,WSW,238,0.0,5.0,63,0.00,,---,0.00,VWS V14.01,2013-01-04 06:11:00,
2013-01-04 01:15:00,28.4,17.4,30.06,SW,234,2.0,5.0,63,0.00,,---,0.00,VWS V14.01,2013-01-04 06:15:00,
2013-01-04 01:16:00,28.4,17.4,30.06,SW,235,4.0,5.0,63,0.00,,---,0.00,VWS V14.01,2013-01-04 06:16:00,
2013-01-04 01:21:00,28.2,17.2,30.06,SW,235,3.0,5.0,63,0.00,,---,0.00,VWS V14.01,2013-01-04 06:21:00,
2013-01-04 01:26:00,28.2,17.6,30.06,SW,224,2.0,6.0,64,0.00,,---,0.00,VWS V14.01,2013-01-04 06:26:00,
2013-01-04 01:30:00,28.2,17.2,30.06,West,259,4.0,6.0,63,0.00,,---,0.00,VWS V14.01,2013-01-04 06:30:00,
2013-01-04 01:31:00,28.2,17.6,30.06,WSW,257,3.0,4.0,64,0.00,,---,0.00,VWS V14.01,2013-01-04 06:31:00,
2013-01-04 01:36:00,28.3,17.7,30.06,SSW,211,0.0,4.0,64,0.00,,---,0.00,VWS V14.01,2013-01-04 06:36:00,
2013-01-04 01:42:00,28.3,17.3,30.07,SSW,209,0.0,4.0,63,0.00,,---,0.00,VWS V14.01,2013-01-04 06:42:00,
2013-01-04 01:45:00,28.3,17.7,30.07,SSW,204,3.0,4.0,64,0.00,,---,0.00,VWS V14.01,2013-01-04 06:45:00,
2013-01-04 01:47:00,28.3,17.7,30.07,WSW,242,3.0,6.0,64,0.00,,---,0.00,VWS V14.01,2013-01-04 06:47:00,
2013-01-04 01:52:00,28.2,17.2,30.07,WSW,238,3.0,6.0,63,0.00,,---,0.00,VWS V14.01,2013-01-04 06:52:00,
2013-01-04 01:57:00,28.2,17.6,30.07,WSW,244,5.0,6.0,64,0.00,,---,0.00,VWS V14.01,2013-01-04 06:57:00,
2013-01-04 02:00:00,28.3,17.7,30.07,SW,222,2.0,6.0,64,0.00,,---,0.00,VWS V14.01,2013-01-04 07:00:00,
2013-01-04 02:02:00,28.2,17.6,30.07,SW,225,3.0,4.0,64,0.00,,---,0.00,VWS V14.01,2013-01-04 07:02:00,
2013-01-04 02:07:00,28.2,17.6,30.07,SW,226,0.0,4.0,64,0.00,,---,0.00,VWS V14.01,2013-01-04 07:07:00,
2013-01-04 02:12:00,28.0,17.4,30.07,SW,226,0.0,4.0,64,0.00,,---,0.00,VWS V14.01,2013-01-04 07:12:00,
2013-01-04 02:15:00,27.9,17.3,30.07,SW,226,2.0,4.0,64,0.00,,---,0.00,VWS V14.01,2013-01-04 07:15:00,
2013-01-04 02:17:00,27.9,17.3,30.07,SW,226,2.0,2.0,64,0.00,,---,0.00,VWS V14.01,2013-01-04 07:17:00,
2013-01-04 02:22:00,28.0,17.4,30.07,SW,217,1.0,4.0,64,0.00,,---,0.00,VWS V14.01,2013-01-04 07:22:00,
2013-01-04 02:27:00,28.1,17.5,30.07,SW,221,3.0,4.0,64,0.00,,---,0.00,VWS V14.01,2013-01-04 07:27:00,
2013-01-04 02:30:00,28.2,17.6,30.07,SW,231,3.0,4.0,64,0.00,,---,0.00,VWS V14.01,2013-01-04 07:30:00,
2013-01-04 02:32:00,28.2,17.6,30.07,SW,232,5.0,5.0,64,0.00,,---,0.00,VWS V14.01,2013-01-04 07:32:00,
2013-01-04 02:37:00,28.3,17.7,30.07,SW,236,0.0,5.0,64,0.00,,---,0.00,VWS V14.01,2013-01-04 07:37:00,
2013-01-04 02:42:00,28.4,17.8,30.07,WSW,239,1.0,5.0,64,0.00,,---,0.00,VWS V14.01,2013-01-04 07:42:00,
2013-01-04 02:45:00,28.4,17.8,30.07,WSW,239,3.0,5.0,64,0.00,,---,0.00,VWS V14.01,2013-01-04 07:45:00,
2013-01-04 02:48:00,28.3,17.7,30.07,WSW,238,2.0,4.0,64,0.00,,---,0.00,VWS V14.01,2013-01-04 07:48:00,
2013-01-04 02:53:00,28.2,17.6,30.07,SW,227,2.0,5.0,64,0.00,,---,0.00,VWS V14.01,2013-01-04 07:53:00,
2013-01-04 02:58:00,28.2,17.6,30.07,SW,226,1.0,5.0,64,0.00,,---,0.00,VWS V14.01,2013-01-04 07:58:00,
2013-01-04 03:00:00,28.2,17.6,30.07,SW,226,2.0,5.0,64,0.00,,---,0.00,VWS V14.01,2013-01-04 08:00:00,
2013-01-04 03:03:00,28.1,17.5,30.07,WSW,238,2.0,3.0,64,0.00,,---,0.00,VWS V14.01,2013-01-04 08:03:00,
2013-01-04 03:08:00,28.0,17.4,30.07,WSW,245,2.0,6.0,64,0.00,,---,0.00,VWS V14.01,2013-01-04 08:08:00,
2013-01-04 03:13:00,28.0,17.4,30.07,West,259,4.0,7.0,64,0.00,,---,0.00,VWS V14.01,2013-01-04 08:13:00,
2013-01-04 03:15:00,27.8,17.6,30.07,WSW,256,3.0,7.0,65,0.00,,---,0.00,VWS V14.01,2013-01-04 08:15:00,
2013-01-04 03:18:00,27.7,17.5,30.07,West,261,0.0,4.0,65,0.00,,---,0.00,VWS V14.01,2013-01-04 08:18:00,
2013-01-04 03:23:00,27.7,17.5,30.07,WSW,254,2.0,5.0,65,0.00,,---,0.00,VWS V14.01,2013-01-04 08:23:00,
2013-01-04 03:28:00,27.8,17.6,30.07,West,261,2.0,5.0,65,0.00,,---,0.00,VWS V14.01,2013-01-04 08:28:00,
2013-01-04 03:30:00,27.7,17.5,30.07,West,263,1.0,5.0,65,0.00,,---,0.00,VWS V14.01,2013-01-04 08:30:00,
2013-01-04 03:33:00,27.7,17.5,30.07,West,263,1.0,2.0,65,0.00,,---,0.00,VWS V14.01,2013-01-04 08:33:00,
2013-01-04 03:38:00,27.7,17.5,30.07,WNW,288,0.0,4.0,65,0.00,,---,0.00,VWS V14.01,2013-01-04 08:38:00,
2013-01-04 03:43:00,27.8,17.6,30.07,West,263,3.0,6.0,65,0.00,,---,0.00,VWS V14.01,2013-01-04 08:43:00,
2013-01-04 03:45:00,27.8,17.6,30.07,West,263,0.0,6.0,65,0.00,,---,0.00,VWS V14.01,2013-01-04 08:45:00,
2013-01-04 03:48:00,27.8,17.6,30.07,West,263,0.0,3.0,65,0.00,,---,0.00,VWS V14.01,2013-01-04 08:48:00,
2013-01-04 03:53:00,27.8,17.6,30.07,West,266,2.0,5.0,65,0.00,,---,0.00,VWS V14.01,2013-01-04 08:53:00,
2013-01-04 03:58:00,27.6,17.4,30.07,West,263,2.0,5.0,65,0.00,,---,0.00,VWS V14.01,2013-01-04 08:58:00,
2013-01-04 04:00:00,27.7,17.5,30.07,West,265,4.0,5.0,65,0.00,,---,0.00,VWS V14.01,2013-01-04 09:00:00,
2013-01-04 04:03:00,27.8,17.6,30.07,West,270,3.0,5.0,65,0.00,,---,0.00,VWS V14.01,2013-01-04 09:03:00,
2013-01-04 04:09:00,27.8,17.6,30.07,West,273,3.0,5.0,65,0.00,,---,0.00,VWS V14.01,2013-01-04 09:09:00,
2013-01-04 04:14:00,27.8,17.9,30.07,West,279,3.0,5.0,66,0.00,,---,0.00,VWS V14.01,2013-01-04 09:14:00,
2013-01-04 04:15:00,27.8,17.9,30.07,West,279,0.0,5.0,66,0.00,,---,0.00,VWS V14.01,2013-01-04 09:15:00,
2013-01-04 04:19:00,27.9,18.0,30.07,NW,325,3.0,6.0,66,0.00,,---,0.00,VWS V14.01,2013-01-04 09:19:00,
2013-01-04 04:24:00,28.0,18.1,30.07,West,281,5.0,6.0,66,0.00,,---,0.00,VWS V14.01,2013-01-04 09:24:00,
2013-01-04 04:29:00,28.2,18.0,30.07,NW,313,3.0,8.0,65,0.00,,---,0.00,VWS V14.01,2013-01-04 09:29:00,
2013-01-04 04:30:00,28.3,18.1,30.07,WNW,288,3.0,8.0,65,0.00,,---,0.00,VWS V14.01,2013-01-04 09:30:00,
2013-01-04 04:34:00,28.3,18.1,30.07,WSW,254,5.0,6.0,65,0.00,,---,0.00,VWS V14.01,2013-01-04 09:34:00,
2013-01-04 04:39:00,28.4,18.1,30.07,West,261,5.0,7.0,65,0.00,,---,0.00,VWS V14.01,2013-01-04 09:39:00,
2013-01-04 04:44:00,28.6,18.3,30.07,West,263,4.0,9.0,65,0.00,,---,0.00,VWS V14.01,2013-01-04 09:44:00,
2013-01-04 04:45:00,28.7,18.4,30.07,SW,229,4.0,9.0,65,0.00,,---,0.00,VWS V14.01,2013-01-04 09:45:00,
2013-01-04 04:49:00,28.8,18.5,30.07,West,259,5.0,6.0,65,0.00,,---,0.00,VWS V14.01,2013-01-04 09:49:00,
2013-01-04 04:54:00,29.1,18.8,30.07,WNW,286,3.0,6.0,65,0.00,,---,0.00,VWS V14.01,2013-01-04 09:54:00,
2013-01-04 04:59:00,29.4,19.1,30.08,WSW,239,6.0,7.0,65,0.00,,---,0.00,VWS V14.01,2013-01-04 09:59:00,
2013-01-04 05:00:00,29.6,19.3,30.08,SW,223,3.0,7.0,65,0.00,,---,0.00,VWS V14.01,2013-01-04 10:00:00,
2013-01-04 05:04:00,30.0,19.3,30.08,West,273,2.0,7.0,64,0.00,,---,0.00,VWS V14.01,2013-01-04 10:04:00,
2013-01-04 05:09:00,30.4,19.7,30.07,West,261,7.0,9.0,64,0.00,,---,0.00,VWS V14.01,2013-01-04 10:09:00,
2013-01-04 05:14:00,30.8,19.7,30.07,West,277,8.0,10.0,63,0.00,,---,0.00,VWS V14.01,2013-01-04 10:14:00,
2013-01-04 05:15:00,30.9,19.8,30.07,WSW,241,4.0,10.0,63,0.00,,---,0.00,VWS V14.01,2013-01-04 10:15:00,
2013-01-04 05:20:00,31.1,20.0,30.07,West,269,8.0,8.0,63,0.00,,---,0.00,VWS V14.01,2013-01-04 10:20:00,
2013-01-04 05:25:00,31.4,19.9,30.08,SW,234,5.0,11.0,62,0.00,,---,0.00,VWS V14.01,2013-01-04 10:25:00,
2013-01-04 05:30:00,31.6,20.1,30.08,West,271,3.0,11.0,62,0.00,,---,0.00,VWS V14.01,2013-01-04 10:30:00,
2013-01-04 05:35:00,31.8,20.3,30.07,SW,236,5.0,9.0,62,0.00,,---,0.00,VWS V14.01,2013-01-04 10:35:00,
2013-01-04 05:40:00,31.7,20.2,30.08,SW,223,5.0,9.0,62,0.00,,---,0.00,VWS V14.01,2013-01-04 10:40:00,
2013-01-04 05:45:00,31.6,20.1,30.07,WSW,245,2.0,9.0,62,0.00,,---,0.00,VWS V14.01,2013-01-04 10:45:00,
2013-01-04 05:50:00,31.5,20.0,30.08,SSW,196,5.0,6.0,62,0.00,,---,0.00,VWS V14.01,2013-01-04 10:50:00,
2013-01-04 05:55:00,31.5,20.0,30.08,WSW,242,4.0,7.0,62,0.00,,---,0.00,VWS V14.01,2013-01-04 10:55:00,
2013-01-04 06:00:00,31.5,20.0,30.08,SSW,192,5.0,8.0,62,0.00,,---,0.00,VWS V14.01,2013-01-04 11:00:00,
2013-01-04 06:05:00,31.5,20.0,30.08,WSW,248,2.0,7.0,62,0.00,,---,0.00,VWS V14.01,2013-01-04 11:05:00,
2013-01-04 06:10:00,31.5,20.4,30.08,West,269,4.0,7.0,63,0.00,,---,0.00,VWS V14.01,2013-01-04 11:10:00,
2013-01-04 06:15:00,31.5,20.0,30.08,SW,219,4.0,7.0,62,0.00,,---,0.00,VWS V14.01,2013-01-04 11:15:00,
2013-01-04 06:20:00,31.5,20.4,30.08,SW,229,2.0,5.0,63,0.00,,---,0.00,VWS V14.01,2013-01-04 11:20:00,
2013-01-04 06:26:00,31.5,20.4,30.08,SW,229,4.0,5.0,63,0.00,,---,0.00,VWS V14.01,2013-01-04 11:26:00,
2013-01-04 06:30:00,31.6,20.1,30.08,WSW,248,4.0,7.0,62,0.00,,---,0.00,VWS V14.01,2013-01-04 11:30:00,
2013-01-04 06:31:00,31.5,20.0,30.08,WSW,248,5.0,7.0,62,0.00,,---,0.00,VWS V14.01,2013-01-04 11:31:00,
2013-01-04 06:36:00,31.6,20.1,30.08,WSW,239,4.0,7.0,62,0.00,,---,0.00,VWS V14.01,2013-01-04 11:36:00,
2013-01-04 06:41:00,31.6,20.1,30.08,WSW,242,7.0,8.0,62,0.00,,---,0.00,VWS V14.01,2013-01-04 11:41:00,
2013-01-04 06:45:00,31.8,20.3,30.08,WSW,258,4.0,11.0,62,0.00,,---,0.00,VWS V14.01,2013-01-04 11:45:00,
2013-01-04 06:46:00,31.8,20.3,30.08,West,259,3.0,4.0,62,0.00,,---,0.00,VWS V14.01,2013-01-04 11:46:00,
2013-01-04 06:51:00,31.8,20.3,30.08,WSW,254,4.0,8.0,62,0.00,,---,0.00,VWS V14.01,2013-01-04 11:51:00,
2013-01-04 06:56:00,31.8,20.3,30.08,WNW,291,4.0,8.0,62,0.00,,---,0.00,VWS V14.01,2013-01-04 11:56:00,
2013-01-04 07:00:00,31.9,20.4,30.08,West,265,6.0,8.0,62,0.00,,---,0.00,VWS V14.01,2013-01-04 12:00:00,
2013-01-04 07:05:00,31.9,20.4,30.08,SW,234,7.0,8.0,62,0.00,,---,0.00,VWS V14.01,2013-01-04 12:05:00,
2013-01-04 07:15:00,31.9,20.4,30.08,WSW,237,7.0,10.0,62,0.00,,---,0.00,VWS V14.01,2013-01-04 12:15:00,
2013-01-04 07:30:00,31.8,20.3,30.08,West,263,4.0,9.0,62,0.00,,---,0.00,VWS V14.01,2013-01-04 12:30:00,
2013-01-04 07:45:00,31.9,20.4,30.08,West,266,6.0,11.0,62,0.00,,---,0.00,VWS V14.01,2013-01-04 12:45:00,
2013-01-04 08:00:00,31.7,20.2,30.08,West,272,7.0,11.0,62,0.00,,---,0.00,VWS V14.01,2013-01-04 13:00:00,
2013-01-04 08:15:00,31.7,20.6,30.08,West,261,5.0,9.0,63,0.00,,---,0.00,VWS V14.01,2013-01-04 13:15:00,
2013-01-04 08:30:00,32.1,20.2,30.09,West,273,5.0,11.0,61,0.00,,---,0.00,VWS V14.01,2013-01-04 13:30:00,
2013-01-04 08:45:00,32.5,20.6,30.09,SW,232,4.0,11.0,61,0.00,,---,0.00,VWS V14.01,2013-01-04 13:45:00,
2013-01-04 08:50:00,32.6,20.7,30.09,SW,221,8.0,11.0,61,0.00,,---,0.00,VWS V14.01,2013-01-04 13:50:00,
2013-01-04 08:56:00,32.7,20.4,30.09,WNW,284,5.0,11.0,60,0.00,,---,0.00,VWS V14.01,2013-01-04 13:56:00,
2013-01-04 09:00:00,32.8,20.5,30.09,SW,232,5.0,11.0,60,0.00,,---,0.00,VWS V14.01,2013-01-04 14:00:00,
2013-01-04 09:01:00,32.8,20.5,30.09,SW,231,4.0,11.0,60,0.00,,---,0.00,VWS V14.01,2013-01-04 14:01:00,
2013-01-04 09:06:00,32.9,20.5,30.09,WSW,238,7.0,11.0,60,0.00,,---,0.00,VWS V14.01,2013-01-04 14:06:00,
2013-01-04 09:11:00,33.0,20.2,30.09,WSW,257,6.0,11.0,59,0.00,,---,0.00,VWS V14.01,2013-01-04 14:11:00,
2013-01-04 09:15:00,33.1,20.3,30.09,West,279,4.0,14.0,59,0.00,,---,0.00,VWS V14.01,2013-01-04 14:15:00,
2013-01-04 09:16:00,33.1,20.4,30.09,West,279,4.0,14.0,59,0.00,,---,0.00,VWS V14.01,2013-01-04 14:16:00,
2013-01-04 09:21:00,33.4,20.6,30.09,WSW,256,11.0,11.0,59,0.00,,---,0.00,VWS V14.01,2013-01-04 14:21:00,
2013-01-04 09:26:00,33.3,20.5,30.09,WSW,252,6.0,14.0,59,0.00,,---,0.00,VWS V14.01,2013-01-04 14:26:00,
2013-01-04 09:30:00,33.6,20.8,30.09,West,281,13.0,16.0,59,0.00,,---,0.00,VWS V14.01,2013-01-04 14:30:00,
2013-01-04 09:31:00,33.6,20.8,30.09,West,277,12.0,13.0,59,0.00,,---,0.00,VWS V14.01,2013-01-04 14:31:00,
2013-01-04 09:36:00,33.8,20.6,30.09,WSW,241,6.0,13.0,58,0.00,,---,0.00,VWS V14.01,2013-01-04 14:36:00,
2013-01-04 09:41:00,33.8,20.6,30.09,West,275,10.0,18.0,58,0.00,,---,0.00,VWS V14.01,2013-01-04 14:41:00,
2013-01-04 09:45:00,34.0,20.8,30.09,WSW,242,6.0,18.0,58,0.00,,---,0.00,VWS V14.01,2013-01-04 14:45:00,
2013-01-04 09:46:00,34.0,20.8,30.09,WSW,257,5.0,6.0,58,0.00,,---,0.00,VWS V14.01,2013-01-04 14:46:00,
2013-01-04 09:51:00,34.1,20.9,30.09,WSW,258,9.0,13.0,58,0.00,,---,0.00,VWS V14.01,2013-01-04 14:51:00,
2013-01-04 09:56:00,33.9,20.7,30.09,West,275,8.0,16.0,58,0.00,,---,0.00,VWS V14.01,2013-01-04 14:56:00,
2013-01-04 10:00:00,34.0,20.8,30.09,West,263,13.0,20.0,58,0.00,,---,0.00,VWS V14.01,2013-01-04 15:00:00,
2013-01-04 10:01:00,34.0,20.8,30.09,WNW,300,10.0,14.0,58,0.00,,---,0.00,VWS V14.01,2013-01-04 15:01:00,
2013-01-04 10:06:00,34.0,20.8,30.08,West,260,9.0,17.0,58,0.00,,---,0.00,VWS V14.01,2013-01-04 15:06:00,
2013-01-04 10:11:00,34.0,20.8,30.08,NW,315,8.0,17.0,58,0.00,,---,0.00,VWS V14.01,2013-01-04 15:11:00,
2013-01-04 10:15:00,34.0,20.8,30.08,West,266,8.0,17.0,58,0.00,,---,0.00,VWS V14.01,2013-01-04 15:15:00,
2013-01-04 10:16:00,34.0,20.8,30.08,West,268,4.0,8.0,58,0.00,,---,0.00,VWS V14.01,2013-01-04 15:16:00,
2013-01-04 10:21:00,34.0,20.8,30.08,West,275,7.0,13.0,58,0.00,,---,0.00,VWS V14.01,2013-01-04 15:21:00,
2013-01-04 10:26:00,34.2,21.0,30.08,NW,309,6.0,22.0,58,0.00,,---,0.00,VWS V14.01,2013-01-04 15:26:00,
2013-01-04 10:30:00,34.4,20.8,30.08,West,281,10.0,22.0,57,0.00,,---,0.00,VWS V14.01,2013-01-04 15:30:00,
2013-01-04 10:32:00,34.4,20.8,30.08,West,267,17.0,18.0,57,0.00,,---,0.00,VWS V14.01,2013-01-04 15:32:00,
2013-01-04 10:37:00,34.7,21.5,30.08,NW,313,2.0,18.0,58,0.00,,---,0.00,VWS V14.01,2013-01-04 15:37:00,
2013-01-04 10:42:00,35.1,21.0,30.07,WSW,251,10.0,18.0,56,0.00,,---,0.00,VWS V14.01,2013-01-04 15:42:00,
2013-01-04 10:45:00,34.4,20.8,30.07,West,267,14.0,23.0,57,0.00,,---,0.00,VWS V14.01,2013-01-04 15:45:00,
2013-01-04 10:47:00,34.4,20.8,30.07,NW,308,12.0,17.0,57,0.00,,---,0.00,VWS V14.01,2013-01-04 15:47:00,
2013-01-04 10:52:00,34.4,20.8,30.07,WNW,299,7.0,23.0,57,0.00,,---,0.00,VWS V14.01,2013-01-04 15:52:00,
2013-01-04 10:57:00,34.4,20.8,30.06,West,281,8.0,23.0,57,0.00,,---,0.00,VWS V14.01,2013-01-04 15:57:00,
2013-01-04 11:00:00,34.4,20.8,30.06,NW,323,9.0,23.0,57,0.00,,---,0.00,VWS V14.01,2013-01-04 16:00:00,
2013-01-04 11:02:00,34.4,20.8,30.06,SW,232,7.0,10.0,57,0.00,,---,0.00,VWS V14.01,2013-01-04 16:02:00,
2013-01-04 11:07:00,34.4,20.8,30.06,West,281,9.0,17.0,57,0.00,,---,0.00,VWS V14.01,2013-01-04 16:07:00,
2013-01-04 11:12:00,34.3,20.7,30.06,NW,308,10.0,21.0,57,0.00,,---,0.00,VWS V14.01,2013-01-04 16:12:00,
2013-01-04 11:15:00,34.3,20.7,30.05,West,271,12.0,21.0,57,0.00,,---,0.00,VWS V14.01,2013-01-04 16:15:00,
2013-01-04 11:17:00,34.2,20.6,30.05,West,271,9.0,21.0,57,0.00,,---,0.00,VWS V14.01,2013-01-04 16:17:00,
2013-01-04 11:22:00,34.1,20.5,30.05,NW,313,11.0,23.0,57,0.00,,---,0.00,VWS V14.01,2013-01-04 16:22:00,
2013-01-04 11:27:00,34.1,20.5,30.05,WNW,288,8.0,26.0,57,0.00,,---,0.00,VWS V14.01,2013-01-04 16:27:00,
2013-01-04 11:30:00,34.1,20.5,30.04,West,274,12.0,26.0,57,0.00,,---,0.00,VWS V14.01,2013-01-04 16:30:00,
2013-01-04 11:32:00,34.1,20.5,30.05,SW,232,9.0,12.0,57,0.00,,---,0.00,VWS V14.01,2013-01-04 16:32:00,
2013-01-04 11:37:00,34.2,20.6,30.04,WSW,243,14.0,26.0,57,0.00,,---,0.00,VWS V14.01,2013-01-04 16:37:00,
2013-01-04 11:42:00,34.3,20.2,30.04,WSW,257,9.0,26.0,56,0.00,,---,0.00,VWS V14.01,2013-01-04 16:42:00,
2013-01-04 11:45:00,34.4,20.8,30.04,WNW,285,12.0,26.0,57,0.00,,---,0.00,VWS V14.01,2013-01-04 16:45:00,
2013-01-04 11:47:00,34.4,20.3,30.04,SW,219,12.0,16.0,56,0.00,,---,0.00,VWS V14.01,2013-01-04 16:47:00,
2013-01-04 11:53:00,34.4,20.3,30.03,West,266,19.0,19.0,56,0.00,,---,0.00,VWS V14.01,2013-01-04 16:53:00,
2013-01-04 11:58:00,34.4,20.8,30.03,WNW,284,12.0,22.0,57,0.00,,---,0.00,VWS V14.01,2013-01-04 16:58:00,
2013-01-04 12:00:00,34.4,20.3,30.03,West,269,10.0,22.0,56,0.00,,---,0.00,VWS V14.01,2013-01-04 17:00:00,
2013-01-04 12:03:00,34.4,20.8,30.03,WNW,286,10.0,18.0,57,0.00,,---,0.00,VWS V14.01,2013-01-04 17:03:00,
2013-01-04 12:08:00,34.4,20.3,30.02,West,265,9.0,18.0,56,0.00,,---,0.00,VWS V14.01,2013-01-04 17:08:00,
2013-01-04 12:13:00,34.4,20.3,30.02,West,263,8.0,20.0,56,0.00,,---,0.00,VWS V14.01,2013-01-04 17:13:00,
2013-01-04 12:15:00,34.6,20.5,30.02,WNW,293,12.0,20.0,56,0.00,,---,0.00,VWS V14.01,2013-01-04 17:15:00,
2013-01-04 12:18:00,34.4,20.3,30.02,West,279,13.0,27.0,56,0.00,,---,0.00,VWS V14.01,2013-01-04 17:18:00,
2013-01-04 12:23:00,34.7,20.6,30.02,NW,324,10.0,27.0,56,0.00,,---,0.00,VWS V14.01,2013-01-04 17:23:00,
2013-01-04 12:28:00,34.8,20.3,30.01,WNW,283,9.0,27.0,55,0.00,,---,0.00,VWS V14.01,2013-01-04 17:28:00,
2013-01-04 12:30:00,35.0,20.9,30.01,WNW,292,8.0,27.0,56,0.00,,---,0.00,VWS V14.01,2013-01-04 17:30:00,
2013-01-04 12:33:00,35.2,21.1,30.01,NNW,333,10.0,15.0,56,0.00,,---,0.00,VWS V14.01,2013-01-04 17:33:00,
2013-01-04 12:38:00,35.1,20.6,30.01,WSW,245,7.0,22.0,55,0.00,,---,0.00,VWS V14.01,2013-01-04 17:38:00,
2013-01-04 12:43:00,35.2,20.7,30.01,West,274,18.0,24.0,55,0.00,,---,0.00,VWS V14.01,2013-01-04 17:43:00,
2013-01-04 12:45:00,35.1,20.6,30.01,WNW,294,9.0,24.0,55,0.00,,---,0.00,VWS V14.01,2013-01-04 17:45:00,
2013-01-04 12:48:00,35.1,20.1,30.01,WSW,244,18.0,24.0,54,0.00,,---,0.00,VWS V14.01,2013-01-04 17:48:00,
2013-01-04 12:53:00,35.1,20.6,30.00,WNW,294,15.0,24.0,55,0.00,,---,0.00,VWS V14.01,2013-01-04 17:53:00,
2013-01-04 12:58:00,35.4,20.4,30.00,West,267,14.0,24.0,54,0.00,,---,0.00,VWS V14.01,2013-01-04 17:58:00,
2013-01-04 13:00:00,35.8,20.8,30.00,WSW,244,14.0,24.0,54,0.00,,---,0.00,VWS V14.01,2013-01-04 18:00:00,
2013-01-04 13:03:00,35.7,20.3,30.00,West,269,19.0,28.0,53,0.00,,---,0.00,VWS V14.01,2013-01-04 18:03:00,
2013-01-04 13:08:00,36.1,21.1,30.00,West,267,15.0,28.0,54,0.00,,---,0.00,VWS V14.01,2013-01-04 18:08:00,
2013-01-04 13:13:00,35.6,20.2,29.99,West,279,15.0,28.0,53,0.00,,---,0.00,VWS V14.01,2013-01-04 18:13:00,
2013-01-04 13:15:00,35.7,20.7,29.99,WNW,284,17.0,28.0,54,0.00,,---,0.00,VWS V14.01,2013-01-04 18:15:00,
2013-01-04 13:18:00,35.5,20.5,29.99,West,276,12.0,22.0,54,0.00,,---,0.00,VWS V14.01,2013-01-04 18:18:00,
2013-01-04 13:24:00,35.3,20.3,29.99,WSW,249,18.0,26.0,54,0.00,,---,0.00,VWS V14.01,2013-01-04 18:24:00,
2013-01-04 13:29:00,34.9,20.4,29.99,West,269,9.0,26.0,55,0.00,,---,0.00,VWS V14.01,2013-01-04 18:29:00,
2013-01-04 13:30:00,35.0,20.5,29.99,West,271,13.0,26.0,55,0.00,,---,0.00,VWS V14.01,2013-01-04 18:30:00,
2013-01-04 13:34:00,35.0,20.5,29.99,West,261,9.0,21.0,55,0.00,,---,0.00,VWS V14.01,2013-01-04 18:34:00,
2013-01-04 13:39:00,34.9,20.4,29.99,NW,311,9.0,21.0,55,0.00,,---,0.00,VWS V14.01,2013-01-04 18:39:00,
2013-01-04 13:44:00,34.8,20.3,29.99,West,263,4.0,23.0,55,0.00,,---,0.00,VWS V14.01,2013-01-04 18:44:00,
2013-01-04 13:45:00,34.9,20.4,29.99,West,281,11.0,24.0,55,0.00,,---,0.00,VWS V14.01,2013-01-04 18:45:00,
2013-01-04 13:49:00,34.8,20.3,29.99,West,273,16.0,24.0,55,0.00,,---,0.00,VWS V14.01,2013-01-04 18:49:00,
2013-01-04 13:54:00,35.1,20.6,29.99,WNW,302,16.0,24.0,55,0.00,,---,0.00,VWS V14.01,2013-01-04 18:54:00,
2013-01-04 13:59:00,35.1,20.6,29.98,West,279,19.0,31.0,55,0.00,,---,0.00,VWS V14.01,2013-01-04 18:59:00,
2013-01-04 14:00:00,35.2,20.7,29.98,WNW,298,15.0,31.0,55,0.00,,---,0.00,VWS V14.01,2013-01-04 19:00:00,
2013-01-04 14:04:00,35.3,20.8,29.98,West,261,11.0,25.0,55,0.00,,---,0.00,VWS V14.01,2013-01-04 19:04:00,
2013-01-04 14:09:00,35.3,20.8,29.98,WNW,286,6.0,25.0,55,0.00,,---,0.00,VWS V14.01,2013-01-04 19:09:00,
2013-01-04 14:14:00,35.3,20.8,29.98,SW,233,13.0,25.0,55,0.00,,---,0.00,VWS V14.01,2013-01-04 19:14:00,
2013-01-04 14:15:00,35.3,20.8,29.98,NW,311,14.0,25.0,55,0.00,,---,0.00,VWS V14.01,2013-01-04 19:15:00,
2013-01-04 14:19:00,35.4,20.9,29.98,WNW,301,12.0,19.0,55,0.00,,---,0.00,VWS V14.01,2013-01-04 19:19:00,
2013-01-04 14:24:00,35.0,20.5,29.98,WNW,284,15.0,24.0,55,0.00,,---,0.00,VWS V14.01,2013-01-04 19:24:00,
2013-01-04 14:29:00,34.7,20.6,29.98,WNW,302,12.0,24.0,56,0.00,,---,0.00,VWS V14.01,2013-01-04 19:29:00,
2013-01-04 14:30:00,34.8,20.7,29.97,NW,318,17.0,24.0,56,0.00,,---,0.00,VWS V14.01,2013-01-04 19:30:00,
2013-01-04 14:34:00,35.0,20.9,29.97,WNW,286,13.0,24.0,56,0.00,,---,0.00,VWS V14.01,2013-01-04 19:34:00,
2013-01-04 14:39:00,35.5,21.4,29.97,WNW,284,22.0,25.0,56,0.00,,---,0.00,VWS V14.01,2013-01-04 19:39:00,
2013-01-04 14:45:00,35.6,20.6,29.97,WNW,297,10.0,26.0,54,0.00,,---,0.00,VWS V14.01,2013-01-04 19:45:00,
2013-01-04 14:50:00,35.7,21.1,29.97,WNW,296,19.0,21.0,55,0.00,,---,0.00,VWS V14.01,2013-01-04 19:50:00,
2013-01-04 14:55:00,36.1,21.5,29.97,NW,315,14.0,21.0,55,0.00,,---,0.00,VWS V14.01,2013-01-04 19:55:00,
2013-01-04 15:00:00,36.0,21.0,29.97,West,279,11.0,21.0,54,0.00,,---,0.00,VWS V14.01,2013-01-04 20:00:00,
2013-01-04 15:05:00,35.8,20.8,29.97,WNW,286,8.0,21.0,54,0.00,,---,0.00,VWS V14.01,2013-01-04 20:05:00,
2013-01-04 15:10:00,35.9,20.9,29.97,West,277,17.0,22.0,54,0.00,,---,0.00,VWS V14.01,2013-01-04 20:10:00,
2013-01-04 15:15:00,35.9,20.9,29.97,SW,234,14.0,22.0,54,0.00,,---,0.00,VWS V14.01,2013-01-04 20:15:00,
2013-01-04 15:20:00,35.9,20.5,29.97,WSW,258,7.0,23.0,53,0.00,,---,0.00,VWS V14.01,2013-01-04 20:20:00,
2013-01-04 15:25:00,36.0,20.5,29.97,NW,308,15.0,23.0,53,0.00,,---,0.00,VWS V14.01,2013-01-04 20:25:00,
2013-01-04 15:30:00,36.0,20.5,29.97,NW,304,13.0,23.0,53,0.00,,---,0.00,VWS V14.01,2013-01-04 20:30:00,
2013-01-04 15:35:00,36.0,20.5,29.97,West,281,13.0,22.0,53,0.00,,---,0.00,VWS V14.01,2013-01-04 20:35:00,
2013-01-04 15:40:00,36.0,20.5,29.96,WNW,286,14.0,27.0,53,0.00,,---,0.00,VWS V14.01,2013-01-04 20:40:00,
2013-01-04 15:45:00,36.0,20.5,29.96,West,274,10.0,27.0,53,0.00,,---,0.00,VWS V14.01,2013-01-04 20:45:00,
2013-01-04 15:50:00,36.1,20.6,29.96,West,279,9.0,17.0,53,0.00,,---,0.00,VWS V14.01,2013-01-04 20:50:00,
2013-01-04 15:55:00,36.2,20.7,29.96,West,263,7.0,22.0,53,0.00,,---,0.00,VWS V14.01,2013-01-04 20:55:00,
2013-01-04 16:00:00,36.1,20.6,29.97,WSW,254,12.0,22.0,53,0.00,,---,0.00,VWS V14.01,2013-01-04 21:00:00,
2013-01-04 16:05:00,36.0,20.5,29.97,West,266,7.0,14.0,53,0.00,,---,0.00,VWS V14.01,2013-01-04 21:05:00,
2013-01-04 16:11:00,36.0,20.5,29.97,WNW,282,12.0,18.0,53,0.00,,---,0.00,VWS V14.01,2013-01-04 21:11:00,
2013-01-04 16:15:00,35.9,20.5,29.97,WNW,290,16.0,18.0,53,0.00,,---,0.00,VWS V14.01,2013-01-04 21:15:00,
2013-01-04 16:16:00,35.9,20.5,29.97,WNW,290,16.0,18.0,53,0.00,,---,0.00,VWS V14.01,2013-01-04 21:16:00,
2013-01-04 16:21:00,35.8,20.8,29.97,West,276,8.0,16.0,54,0.00,,---,0.00,VWS V14.01,2013-01-04 21:21:00,
2013-01-04 16:26:00,35.7,20.7,29.96,West,273,7.0,16.0,54,0.00,,---,0.00,VWS V14.01,2013-01-04 21:26:00,
2013-01-04 16:30:00,35.6,20.6,29.96,West,273,14.0,17.0,54,0.00,,---,0.00,VWS V14.01,2013-01-04 21:30:00,
2013-01-04 16:31:00,35.6,20.6,29.96,West,261,16.0,17.0,54,0.00,,---,0.00,VWS V14.01,2013-01-04 21:31:00,
2013-01-04 16:36:00,35.4,20.9,29.97,WNW,290,15.0,17.0,55,0.00,,---,0.00,VWS V14.01,2013-01-04 21:36:00,
2013-01-04 16:41:00,35.3,20.8,29.97,West,271,10.0,17.0,55,0.00,,---,0.00,VWS V14.01,2013-01-04 21:41:00,
2013-01-04 16:45:00,35.2,20.7,29.97,SW,233,10.0,17.0,55,0.00,,---,0.00,VWS V14.01,2013-01-04 21:45:00,
2013-01-04 16:46:00,35.2,20.7,29.97,WSW,243,5.0,10.0,55,0.00,,---,0.00,VWS V14.01,2013-01-04 21:46:00,
2013-01-04 16:51:00,35.1,20.6,29.97,West,267,9.0,12.0,55,0.00,,---,0.00,VWS V14.01,2013-01-04 21:51:00,
2013-01-04 16:56:00,35.0,20.9,29.96,West,261,7.0,13.0,56,0.00,,---,0.00,VWS V14.01,2013-01-04 21:56:00,
2013-01-04 17:00:00,35.0,20.9,29.96,WSW,250,14.0,15.0,56,0.00,,---,0.00,VWS V14.01,2013-01-04 22:00:00,
2013-01-04 17:01:00,35.0,20.9,29.96,West,275,8.0,14.0,56,0.00,,---,0.00,VWS V14.01,2013-01-04 22:01:00,
2013-01-04 17:06:00,35.0,20.9,29.96,West,279,15.0,15.0,56,0.00,,---,0.00,VWS V14.01,2013-01-04 22:06:00,
2013-01-04 17:11:00,34.8,20.7,29.97,WSW,242,10.0,16.0,56,0.00,,---,0.00,VWS V14.01,2013-01-04 22:11:00,
2013-01-04 17:15:00,34.8,20.7,29.97,WSW,240,11.0,16.0,56,0.00,,---,0.00,VWS V14.01,2013-01-04 22:15:00,
2013-01-04 17:16:00,34.8,20.7,29.97,West,277,11.0,13.0,56,0.00,,---,0.00,VWS V14.01,2013-01-04 22:16:00,
2013-01-04 17:21:00,34.8,20.7,29.97,WSW,251,11.0,13.0,56,0.00,,---,0.00,VWS V14.01,2013-01-04 22:21:00,
2013-01-04 17:27:00,34.9,20.8,29.97,West,270,6.0,15.0,56,0.00,,---,0.00,VWS V14.01,2013-01-04 22:27:00,
2013-01-04 17:30:00,34.7,20.6,29.98,West,263,6.0,15.0,56,0.00,,---,0.00,VWS V14.01,2013-01-04 22:30:00,
2013-01-04 17:32:00,34.7,20.6,29.98,West,275,6.0,7.0,56,0.00,,---,0.00,VWS V14.01,2013-01-04 22:32:00,
2013-01-04 17:37:00,34.7,20.6,29.98,West,275,6.0,13.0,56,0.00,,---,0.00,VWS V14.01,2013-01-04 22:37:00,
2013-01-04 17:42:00,34.8,20.7,29.98,West,272,7.0,16.0,56,0.00,,---,0.00,VWS V14.01,2013-01-04 22:42:00,
2013-01-04 17:45:00,34.7,20.6,29.98,WSW,241,9.0,16.0,56,0.00,,---,0.00,VWS V14.01,2013-01-04 22:45:00,
2013-01-04 17:47:00,34.6,20.5,29.98,West,263,8.0,10.0,56,0.00,,---,0.00,VWS V14.01,2013-01-04 22:47:00,
2013-01-04 17:52:00,34.5,20.9,29.98,WSW,242,6.0,10.0,57,0.00,,---,0.00,VWS V14.01,2013-01-04 22:52:00,
2013-01-04 17:57:00,34.4,20.8,29.98,West,261,4.0,11.0,57,0.00,,---,0.00,VWS V14.01,2013-01-04 22:57:00,
2013-01-04 18:00:00,34.4,20.8,29.98,WNW,288,6.0,11.0,57,0.00,,---,0.00,VWS V14.01,2013-01-04 23:00:00,
2013-01-04 18:02:00,34.4,20.8,29.98,West,267,7.0,13.0,57,0.00,,---,0.00,VWS V14.01,2013-01-04 23:02:00,
2013-01-04 18:07:00,34.4,20.8,29.98,West,265,9.0,15.0,57,0.00,,---,0.00,VWS V14.01,2013-01-04 23:07:00,
2013-01-04 18:12:00,34.4,20.8,29.98,WSW,245,6.0,15.0,57,0.00,,---,0.00,VWS V14.01,2013-01-04 23:12:00,
2013-01-04 18:15:00,34.4,20.8,29.98,West,271,9.0,15.0,57,0.00,,---,0.00,VWS V14.01,2013-01-04 23:15:00,
2013-01-04 18:17:00,34.4,20.8,29.98,West,273,12.0,12.0,57,0.00,,---,0.00,VWS V14.01,2013-01-04 23:17:00,
2013-01-04 18:22:00,34.4,20.8,29.98,WNW,292,14.0,14.0,57,0.00,,---,0.00,VWS V14.01,2013-01-04 23:22:00,
2013-01-04 18:27:00,34.4,20.8,29.98,West,265,9.0,14.0,57,0.00,,---,0.00,VWS V14.01,2013-01-04 23:27:00,
2013-01-04 18:30:00,34.4,20.8,29.98,West,275,8.0,14.0,57,0.00,,---,0.00,VWS V14.01,2013-01-04 23:30:00,
2013-01-04 18:32:00,34.3,21.1,29.98,West,267,10.0,12.0,58,0.00,,---,0.00,VWS V14.01,2013-01-04 23:32:00,
2013-01-04 18:38:00,34.4,20.8,29.98,WSW,248,3.0,15.0,57,0.00,,---,0.00,VWS V14.01,2013-01-04 23:38:00,
2013-01-04 18:43:00,34.2,21.0,29.98,WSW,257,12.0,15.0,58,0.00,,---,0.00,VWS V14.01,2013-01-04 23:43:00,
2013-01-04 18:45:00,34.3,21.1,29.99,West,265,5.0,15.0,58,0.00,,---,0.00,VWS V14.01,2013-01-04 23:45:00,
2013-01-04 18:48:00,34.3,21.1,29.99,WSW,248,4.0,13.0,58,0.00,,---,0.00,VWS V14.01,2013-01-04 23:48:00,
2013-01-04 18:53:00,34.3,21.1,29.99,WSW,248,7.0,13.0,58,0.00,,---,0.00,VWS V14.01,2013-01-04 23:53:00,
2013-01-04 18:58:00,34.4,21.2,29.99,WNW,286,10.0,15.0,58,0.00,,---,0.00,VWS V14.01,2013-01-04 23:58:00,
2013-01-04 19:00:00,34.4,21.2,29.99,SW,218,7.0,15.0,58,0.00,,---,0.00,VWS V14.01,2013-01-05 00:00:00,
2013-01-04 19:03:00,34.4,21.2,29.99,West,266,3.0,10.0,58,0.00,,---,0.00,VWS V14.01,2013-01-05 00:03:00,
2013-01-04 19:08:00,34.2,21.0,29.99,West,280,5.0,13.0,58,0.00,,---,0.00,VWS V14.01,2013-01-05 00:08:00,
2013-01-04 19:13:00,34.2,21.0,29.98,WNW,289,9.0,13.0,58,0.00,,---,0.00,VWS V14.01,2013-01-05 00:13:00,
2013-01-04 19:15:00,34.2,21.0,29.98,WNW,298,4.0,13.0,58,0.00,,---,0.00,VWS V14.01,2013-01-05 00:15:00,
2013-01-04 19:18:00,34.1,20.9,29.98,WNW,283,6.0,10.0,58,0.00,,---,0.00,VWS V14.01,2013-01-05 00:18:00,
2013-01-04 19:23:00,34.1,20.9,29.99,WSW,242,6.0,11.0,58,0.00,,---,0.00,VWS V14.01,2013-01-05 00:23:00,
2013-01-04 19:29:00,34.2,21.0,29.99,WSW,244,5.0,13.0,58,0.00,,---,0.00,VWS V14.01,2013-01-05 00:29:00,
2013-01-04 19:30:00,34.2,21.0,29.99,West,275,9.0,15.0,58,0.00,,---,0.00,VWS V14.01,2013-01-05 00:30:00,
2013-01-04 19:34:00,34.3,21.1,29.98,WSW,242,5.0,13.0,58,0.00,,---,0.00,VWS V14.01,2013-01-05 00:34:00,
2013-01-04 19:39:00,34.2,21.0,29.99,West,265,6.0,13.0,58,0.00,,---,0.00,VWS V14.01,2013-01-05 00:39:00,
2013-01-04 19:44:00,34.2,21.0,29.99,WSW,257,6.0,13.0,58,0.00,,---,0.00,VWS V14.01,2013-01-05 00:44:00,
2013-01-04 19:45:00,34.1,20.9,29.99,WSW,239,3.0,13.0,58,0.00,,---,0.00,VWS V14.01,2013-01-05 00:45:00,
2013-01-04 19:49:00,34.0,20.8,29.99,West,265,9.0,10.0,58,0.00,,---,0.00,VWS V14.01,2013-01-05 00:49:00,
2013-01-04 19:54:00,34.0,20.8,29.99,SW,236,8.0,13.0,58,0.00,,---,0.00,VWS V14.01,2013-01-05 00:54:00,
2013-01-04 19:59:00,33.9,20.7,29.99,WSW,249,4.0,13.0,58,0.00,,---,0.00,VWS V14.01,2013-01-05 00:59:00,
2013-01-04 20:00:00,33.9,20.7,29.99,West,265,5.0,13.0,58,0.00,,---,0.00,VWS V14.01,2013-01-05 01:00:00,
2013-01-04 20:04:00,33.9,20.7,29.99,West,263,3.0,9.0,58,0.00,,---,0.00,VWS V14.01,2013-01-05 01:04:00,
2013-01-04 20:09:00,33.8,20.6,29.98,West,263,4.0,12.0,58,0.00,,---,0.00,VWS V14.01,2013-01-05 01:09:00,
2013-01-04 20:14:00,33.8,20.6,29.98,WSW,252,6.0,12.0,58,0.00,,---,0.00,VWS V14.01,2013-01-05 01:14:00,
2013-01-04 20:15:00,33.8,20.6,29.98,West,269,5.0,12.0,58,0.00,,---,0.00,VWS V14.01,2013-01-05 01:15:00,
2013-01-04 20:19:00,33.7,20.5,29.98,West,262,6.0,9.0,58,0.00,,---,0.00,VWS V14.01,2013-01-05 01:19:00,
2013-01-04 20:24:00,33.6,20.4,29.99,WNW,288,5.0,9.0,58,0.00,,---,0.00,VWS V14.01,2013-01-05 01:24:00,
2013-01-04 20:30:00,33.5,20.3,29.98,WSW,246,7.0,9.0,58,0.00,,---,0.00,VWS V14.01,2013-01-05 01:30:00,
2013-01-04 20:35:00,33.5,20.3,29.98,West,279,1.0,9.0,58,0.00,,---,0.00,VWS V14.01,2013-01-05 01:35:00,
2013-01-04 20:40:00,33.5,20.3,29.99,WSW,238,10.0,11.0,58,0.00,,---,0.00,VWS V14.01,2013-01-05 01:40:00,
2013-01-04 20:45:00,33.5,20.3,29.98,WNW,303,4.0,11.0,58,0.00,,---,0.00,VWS V14.01,2013-01-05 01:45:00,
2013-01-04 20:50:00,33.4,20.2,29.98,West,271,7.0,9.0,58,0.00,,---,0.00,VWS V14.01,2013-01-05 01:50:00,
2013-01-04 20:55:00,33.3,20.1,29.98,WSW,258,3.0,9.0,58,0.00,,---,0.00,VWS V14.01,2013-01-05 01:55:00,
2013-01-04 21:00:00,33.3,20.1,29.98,West,277,6.0,10.0,58,0.00,,---,0.00,VWS V14.01,2013-01-05 02:00:00,
2013-01-04 21:05:00,33.3,20.1,29.99,West,269,3.0,11.0,58,0.00,,---,0.00,VWS V14.01,2013-01-05 02:05:00,
2013-01-04 21:10:00,33.2,20.0,29.99,West,278,7.0,11.0,58,0.00,,---,0.00,VWS V14.01,2013-01-05 02:10:00,
2013-01-04 21:15:00,33.1,19.9,29.99,WSW,257,0.0,11.0,58,0.00,,---,0.00,VWS V14.01,2013-01-05 02:15:00,
2013-01-04 21:20:00,33.1,19.9,29.99,WSW,243,6.0,11.0,58,0.00,,---,0.00,VWS V14.01,2013-01-05 02:20:00,
2013-01-04 21:25:00,33.3,20.1,29.99,West,276,5.0,11.0,58,0.00,,---,0.00,VWS V14.01,2013-01-05 02:25:00,
2013-01-04 21:30:00,33.6,20.0,29.99,West,267,9.0,16.0,57,0.00,,---,0.00,VWS V14.01,2013-01-05 02:30:00,
2013-01-04 21:35:00,33.8,20.2,29.99,West,278,14.0,18.0,57,0.00,,---,0.00,VWS V14.01,2013-01-05 02:35:00,
2013-01-04 21:40:00,33.9,19.9,29.99,West,271,4.0,18.0,56,0.00,,---,0.00,VWS V14.01,2013-01-05 02:40:00,
2013-01-04 21:45:00,33.7,19.7,29.99,West,265,8.0,18.0,56,0.00,,---,0.00,VWS V14.01,2013-01-05 02:45:00,
2013-01-04 21:50:00,33.6,20.0,29.99,West,273,9.0,14.0,57,0.00,,---,0.00,VWS V14.01,2013-01-05 02:50:00,
2013-01-04 21:55:00,33.5,19.9,29.99,West,278,8.0,14.0,57,0.00,,---,0.00,VWS V14.01,2013-01-05 02:55:00,
2013-01-04 22:00:00,33.4,19.8,30.00,West,271,3.0,14.0,57,0.00,,---,0.00,VWS V14.01,2013-01-05 03:00:00,
2013-01-04 22:05:00,33.4,19.8,30.00,West,267,6.0,14.0,57,0.00,,---,0.00,VWS V14.01,2013-01-05 03:05:00,
2013-01-04 22:10:00,33.5,19.5,30.00,West,269,4.0,17.0,56,0.00,,---,0.00,VWS V14.01,2013-01-05 03:10:00,
2013-01-04 22:15:00,33.4,19.8,30.00,WSW,257,5.0,17.0,57,0.00,,---,0.00,VWS V14.01,2013-01-05 03:15:00,
2013-01-04 22:16:00,33.4,19.8,30.00,SW,227,6.0,17.0,57,0.00,,---,0.00,VWS V14.01,2013-01-05 03:16:00,
2013-01-04 22:21:00,33.2,19.6,30.00,WSW,257,8.0,12.0,57,0.00,,---,0.00,VWS V14.01,2013-01-05 03:21:00,
2013-01-04 22:26:00,33.1,19.5,30.00,West,259,9.0,12.0,57,0.00,,---,0.00,VWS V14.01,2013-01-05 03:26:00,
2013-01-04 22:30:00,33.0,19.4,30.00,WSW,243,5.0,12.0,57,0.00,,---,0.00,VWS V14.01,2013-01-05 03:30:00,
2013-01-04 22:31:00,33.0,19.4,30.00,WSW,244,5.0,12.0,57,0.00,,---,0.00,VWS V14.01,2013-01-05 03:31:00,
2013-01-04 22:36:00,33.0,19.4,30.00,WNW,292,4.0,14.0,57,0.00,,---,0.00,VWS V14.01,2013-01-05 03:36:00,
2013-01-04 22:41:00,33.0,19.4,30.00,WSW,244,4.0,14.0,57,0.00,,---,0.00,VWS V14.01,2013-01-05 03:41:00,
2013-01-04 22:45:00,33.0,19.4,30.01,WSW,247,6.0,14.0,57,0.00,,---,0.00,VWS V14.01,2013-01-05 03:45:00,
2013-01-04 22:46:00,33.0,19.4,30.01,WNW,285,5.0,6.0,57,0.00,,---,0.00,VWS V14.01,2013-01-05 03:46:00,
2013-01-04 22:51:00,33.0,19.0,30.00,WSW,247,7.0,8.0,56,0.00,,---,0.00,VWS V14.01,2013-01-05 03:51:00,
2013-01-04 22:56:00,33.0,19.0,30.01,WNW,284,6.0,11.0,56,0.00,,---,0.00,VWS V14.01,2013-01-05 03:56:00,
2013-01-04 23:00:00,33.2,19.2,30.01,West,271,10.0,12.0,56,0.00,,---,0.00,VWS V14.01,2013-01-05 04:00:00,
2013-01-04 23:01:00,33.2,19.2,30.01,West,276,11.0,11.0,56,0.00,,---,0.00,VWS V14.01,2013-01-05 04:01:00,
2013-01-04 23:06:00,33.2,19.2,30.01,West,268,7.0,13.0,56,0.00,,---,0.00,VWS V14.01,2013-01-05 04:06:00,
2013-01-04 23:11:00,33.1,19.1,30.01,West,263,12.0,13.0,56,0.00,,---,0.00,VWS V14.01,2013-01-05 04:11:00,
2013-01-04 23:15:00,33.0,19.0,30.01,West,273,6.0,13.0,56,0.00,,---,0.00,VWS V14.01,2013-01-05 04:15:00,
2013-01-04 23:16:00,33.0,19.0,30.01,West,265,7.0,7.0,56,0.00,,---,0.00,VWS V14.01,2013-01-05 04:16:00,
2013-01-04 23:21:00,32.8,18.8,30.01,West,277,5.0,10.0,56,0.00,,---,0.00,VWS V14.01,2013-01-05 04:21:00,
2013-01-04 23:26:00,32.7,18.8,30.01,West,273,8.0,10.0,56,0.00,,---,0.00,VWS V14.01,2013-01-05 04:26:00,
2013-01-04 23:30:00,32.7,18.8,30.01,West,277,4.0,13.0,56,0.00,,---,0.00,VWS V14.01,2013-01-05 04:30:00,
2013-01-04 23:31:00,32.7,18.8,30.01,West,277,4.0,8.0,56,0.00,,---,0.00,VWS V14.01,2013-01-05 04:31:00,
2013-01-04 23:36:00,32.5,19.0,30.02,West,269,5.0,11.0,57,0.00,,---,0.00,VWS V14.01,2013-01-05 04:36:00,
2013-01-04 23:41:00,32.5,19.0,30.02,West,267,4.0,11.0,57,0.00,,---,0.00,VWS V14.01,2013-01-05 04:41:00,
2013-01-04 23:45:00,32.5,19.0,30.02,West,273,3.0,11.0,57,0.00,,---,0.00,VWS V14.01,2013-01-05 04:45:00,
2013-01-04 23:46:00,32.4,18.9,30.02,WNW,284,10.0,10.0,57,0.00,,---,0.00,VWS V14.01,2013-01-05 04:46:00,
2013-01-04 23:51:00,32.4,18.9,30.02,West,279,6.0,11.0,57,0.00,,---,0.00,VWS V14.01,2013-01-05 04:51:00,
2013-01-04 23:57:00,32.3,18.8,30.02,West,273,4.0,11.0,57,0.00,,---,0.00,VWS V14.01,2013-01-05 04:57:00,